COSMOS 1275 DEB, 42183

Orbit data source: Space-Track

COSMOS 1275 DEB, 42183 is space debris in LEO originally from a launch on Thu, 04 Jun 1981 UTC launched from the Plesetsk Missile And Space Complex (PKMTR). Debris objects in space refer to the collection of defunct objects orbiting the Earth. Examples of debris include non-operational satellites, rocket bodies, and fragments generated from explosions, collisions, or faulty payload assembly.

Loading next visibility...
COSMOS 1275 DEB details
Identifier
42183, 1981-053SX
Orbit
LEO
Last TLE update16 hours ago
Origin
Flag of CISGUKOS (CIS)
ManufacturerUnknown
MissionSpacecraft
Bus & MotorUnknown
MassUnknown
Launch date (UTC)
1981-06-04 (44 years ago)
Launch vehicleUnknown
Launch site
Plesetsk Missile And Space Complex (PKMTR)
Object type
Payload
Rocket body
Debris
Shape & HBRUnknown
Radar Cross SectionSmall (<0.1 m²)

Expand to show TLE details & history

TLE from 16 hours ago
0 COSMOS 1275 DEB
1 42183U 81053SX  24361.01648355  .00001100  00000-0  93277-3 0  9996
2 42183  82.9361 256.6142 0046226 167.4171 253.0969 13.86163474540020
Epoch: 2024-12-26T00:23Z
Definitive object data (Epoch: 2024-12-26T00:23:44.178Z)
Latitude59.35722°
Longitude167.68843°
Altitude962.161 km
Speed7.371 km/s
True Right ascension17h 54m 29s
True Declination59° 12' 37"
Sunlit
Object was in daylight at TLE epoch
Visualization TLE readout
Latitude30.1978°
Longitude-28.93985°
Altitude913.339 km
Speed7.414 km/s
Apparent Right ascension04h 21m 24s
Apparent Declination-2° 10' 34"
Sunlit
Object is in full shadow
Visualization observer readout
Local Sidereal Time15:47:09
Azimuth346.179° N
Elevation-51.467°
Doppler factor1
Orbital elements
Apogee altitude973.066 km
Perigee altitude905.415 km
Semi-major axis7,317.377 km
Eccentricity0.0046226
Inclination82.9361°
RAAN256.6142°
Arg. of periapsis167.4171°
True anomaly252.59093°
Mean anomaly253.0969°
Eccentric anomaly252.84383°
Mean motion3.46745 °/min
BSTAR0.00093277
Orbital period103.82 mins
Loading maneuver chart data...
Loading historical data...
Loading historical data...
Loading historical data...
Loading historical data...
Loading historical data...
Loading historical data...
Loading historical data...

COSMOS 1275 DEB Visibility forecast

Observer location: undefined°, undefined

Span
Click to sort rows by Start time (UTC) header in descending order
Start Az.
Max El. time (UTC)
Max El. Az.
Max El.
End time (UTC)
End Az.
11 mins2024-12-26 17:31:59.200Z164.936° S2024-12-26 17:36:59.200Z104.375° ESE38.486°2024-12-26 17:42:59.200Z17.475° NNE
7 mins2024-12-26 19:18:59.200Z249.368° W2024-12-26 19:21:59.200Z284.197° WNW20.577°2024-12-26 19:25:59.200Z331.349° NNW
9 mins2024-12-27 04:24:59.200Z14.776° NNE2024-12-27 04:28:59.200Z68.584° E31.164°2024-12-27 04:33:59.200Z139.816° SSE
8 mins2024-12-27 06:09:59.200Z322.925° NNW2024-12-27 06:13:59.200Z269.66° W25.276°2024-12-27 06:17:59.200Z220.8° SW
|